Theta_e
314 315 314 314 314 314 314 314 314 314 314 314 314 314 314 314 314 314 314 314 314 313 313 313 313 313 313 313 313 311 307 312 318 318 319 315 310 311 308 308 311 311 318 333 335 331 329 330 336 343 344 342 345 348 349 350 348 352 358 355 347 350 355 356 362 361 364 366 361 361 360 362 363 359 356 355 355 354 352 351 347 348 347 346 347 347 349 350
314 314 314 314 314 314 314 314 314 314 314 314 314 314 314 314 314 314 314 314 313 313 313 312 313 313 312 312 312 308 309 316 319 318 318 312 309 310 308 310 310 311 324 336 332 328 328 328 334 341 343 342 344 347 349 349 347 352 357 354 349 355 358 355 360 359 363 364 360 362 361 360 362 359 356 356 358 354 352 352 349 349 348 348 348 348 350 350
314 314 314 314 314 314 314 314 314 314 314 314 313 313 314 314 314 314 314 314 313 313 313 312 312 313 313 312 309 309 313 319 319 320 323 318 315 311 308 311 311 313 327 335 329 327 329 327 333 338 342 343 344 346 348 348 348 351 354 355 352 356 360 357 357 358 360 360 359 362 361 361 360 357 356 357 357 356 355 353 349 350 348 347 347 349 350 349
314 314 314 314 314 314 314 314 314 314 314 313 313 313 314 314 314 314 314 313 313 313 312 312 312 312 313 311 308 311 316 322 319 321 325 320 318 314 307 311 312 315 326 332 329 329 328 327 331 336 341 344 345 346 347 348 349 351 352 354 349 352 360 358 354 358 359 358 360 362 362 362 359 356 357 356 357 357 356 352 349 349 348 346 346 348 350 349
314 314 314 314 314 314 314 314 314 314 314 314 313 313 314 314 314 313 313 313 312 312 312 312 312 312 313 309 308 315 318 319 317 318 319 317 318 315 308 309 313 320 329 331 330 329 327 328 330 333 339 344 346 346 347 347 347 350 350 350 347 350 359 358 354 358 358 358 361 363 364 361 358 358 357 357 358 357 355 351 347 346 347 345 345 348 350 350
314 313 313 314 314 314 314 314 314 314 314 313 313 313 313 313 312 313 313 312 312 311 311 312 313 313 312 306 310 318 320 312 315 315 315 318 318 315 310 307 315 327 329 330 331 327 325 326 328 334 339 343 347 347 347 347 346 350 350 344 342 346 355 356 354 356 357 360 361 363 364 359 359 359 357 358 360 357 353 349 346 346 347 347 348 348 347 348
313 313 313 313 313 312 313 313 313 313 313 313 313 313 313 313 312 313 312 312 312 311 312 314 313 313 310 309 315 319 317 311 317 318 318 320 318 312 309 308 319 330 326 327 330 326 324 323 326 333 339 344 346 346 346 346 346 349 348 341 340 345 353 355 355 356 357 359 361 362 361 360 360 359 357 359 359 354 351 349 349 349 349 348 348 347 347 348
313 312 312 312 312 312 312 313 312 312 312 312 312 313 313 313 312 312 312 313 312 312 313 313 314 311 307 314 322 318 312 315 319 324 324 320 315 310 312 317 325 329 323 325 328 326 325 321 324 331 338 344 345 345 345 346 345 346 344 338 342 351 354 355 355 355 357 359 359 361 362 362 359 358 358 359 356 352 351 350 350 349 348 347 345 345 348 349
312 312 312 312 312 312 313 313 312 313 313 311 311 313 313 313 313 313 313 313 312 312 312 313 314 310 308 317 321 310 315 319 320 330 330 321 316 317 321 326 327 326 323 325 326 325 324 321 323 329 338 342 340 343 344 345 343 339 335 335 348 357 355 355 355 356 358 359 359 361 363 361 358 358 360 359 354 352 351 350 349 348 346 346 345 345 349 350
312 312 312 312 313 313 313 313 313 313 314 312 311 312 312 312 312 312 313 312 312 311 311 314 314 309 314 321 317 309 319 322 322 332 334 325 324 326 326 325 326 326 325 324 324 324 323 320 323 328 337 341 338 338 343 342 336 330 332 340 354 358 356 356 356 357 357 358 358 361 363 360 357 360 361 358 354 351 351 351 348 347 347 345 345 346 350 350
312 312 312 312 312 312 312 312 312 313 313 312 311 312 311 312 312 312 312 310 311 311 312 314 313 312 318 319 312 311 318 321 323 331 334 329 328 327 324 325 327 327 324 324 324 323 322 322 325 329 335 338 336 338 341 337 331 328 338 353 357 356 358 358 360 359 357 358 358 360 362 360 358 360 361 357 354 352 352 352 349 347 347 346 345 346 349 350
312 312 312 312 312 312 312 312 312 312 313 312 311 311 312 312 312 312 311 309 309 310 312 312 311 315 320 317 313 312 314 315 320 329 332 328 326 325 324 325 325 326 325 325 324 323 323 323 326 328 332 333 336 340 338 333 330 328 340 358 358 358 361 358 360 361 358 359 358 359 360 361 361 360 361 356 352 354 354 353 350 347 347 346 347 347 349 351
312 312 312 312 312 312 312 312 312 312 313 312 311 311 312 312 312 312 310 309 308 309 311 310 311 316 320 316 311 310 311 312 319 328 328 324 324 323 323 322 321 323 323 324 325 324 324 324 323 326 331 333 337 338 333 331 331 330 340 355 358 360 361 360 360 361 360 358 357 360 359 360 362 361 359 355 354 356 355 353 351 348 347 347 347 347 348 350
312 312 312 312 312 312 312 312 312 313 314 313 312 312 312 312 312 312 310 309 308 309 310 309 314 319 319 314 311 311 311 313 321 327 323 323 322 320 322 321 321 320 321 323 324 324 323 324 323 326 331 333 335 334 331 332 333 338 342 349 356 351 353 362 359 360 362 356 357 361 358 359 362 361 359 356 356 357 355 353 351 349 348 347 348 347 347 349
312 312 312 312 312 312 312 312 313 314 315 313 312 312 312 312 312 310 309 311 311 309 311 313 317 321 319 316 315 314 314 316 323 325 321 322 321 320 320 319 320 319 319 320 321 323 322 322 322 326 332 333 333 332 334 335 339 348 339 335 347 344 349 365 359 358 362 356 356 358 355 359 364 361 359 357 357 358 356 353 351 350 348 347 348 348 347 348
312 312 312 312 312 312 313 312 313 315 315 314 312 311 312 313 312 310 310 312 312 312 317 321 321 321 320 316 316 317 319 320 324 324 321 321 321 322 319 318 318 316 317 316 317 322 321 322 322 325 332 334 334 334 333 334 338 348 338 330 338 341 348 361 359 358 359 357 358 355 356 360 364 362 359 359 358 358 356 355 352 350 349 349 348 348 347 348
312 311 311 312 312 312 312 312 314 316 316 315 313 312 313 313 313 312 312 315 316 317 320 323 321 322 319 314 316 318 321 322 323 325 323 321 321 323 320 319 317 316 317 316 316 319 320 323 322 326 333 334 336 334 328 326 328 337 339 334 338 344 347 352 359 360 357 359 360 358 360 361 361 361 360 359 359 359 357 355 353 350 350 350 349 348 348 348
312 311 311 311 312 312 312 312 314 316 316 315 313 313 315 315 315 317 317 318 320 320 321 321 321 321 315 314 318 319 321 321 322 326 324 322 322 322 321 320 318 317 316 315 315 316 319 321 322 328 335 335 336 331 324 324 328 330 332 333 336 342 345 349 356 358 358 360 359 358 360 361 360 360 360 357 357 360 359 356 353 351 351 350 350 349 349 349
312 311 311 311 312 312 312 312 314 317 316 316 315 316 318 318 319 322 321 320 323 325 324 323 322 320 315 317 319 320 320 320 322 325 324 322 321 321 321 321 319 316 315 315 316 316 318 320 323 329 335 337 336 333 327 327 334 336 336 337 335 336 343 352 357 354 358 360 359 359 357 360 361 360 359 357 357 359 359 358 355 353 352 351 351 349 350 349
312 311 311 311 312 312 312 313 315 316 316 316 318 320 322 322 325 326 324 323 323 322 320 319 320 319 318 319 319 320 320 320 322 324 324 322 321 320 319 320 318 315 315 316 316 317 318 320 324 329 335 338 336 334 331 325 332 339 342 342 337 338 344 354 359 355 355 354 355 359 357 356 359 358 358 357 357 358 359 359 356 354 354 352 351 350 351 350
312 311 311 311 311 312 312 313 315 316 315 316 319 324 322 320 321 321 321 323 322 322 320 320 320 320 320 320 320 321 321 321 322 324 323 321 320 319 318 319 318 315 315 315 318 319 320 320 323 329 334 337 334 331 329 324 328 335 339 339 336 342 348 355 359 357 357 354 352 358 359 356 359 360 358 356 357 358 359 360 358 355 354 354 353 353 352 350
311 312 311 311 312 312 312 313 316 316 315 315 319 324 320 319 320 319 320 320 321 322 320 320 321 320 321 321 320 320 321 323 323 323 323 321 319 318 317 317 318 316 315 316 320 320 319 321 324 329 333 334 331 328 327 325 327 331 335 334 333 344 349 350 357 360 358 355 354 357 355 355 361 360 357 357 357 357 358 358 359 357 355 355 354 354 353 351
311 312 311 311 312 312 312 313 316 316 314 316 321 322 320 319 318 319 319 320 321 320 319 319 320 320 321 322 321 320 321 324 324 323 323 321 319 318 317 317 318 317 315 316 319 317 316 321 326 330 332 332 330 327 326 324 325 329 331 328 330 343 342 337 349 360 358 353 354 358 352 353 361 360 359 358 356 357 357 356 358 358 357 355 354 355 354 352
311 311 311 311 312 312 312 313 316 317 315 317 320 320 320 318 318 319 319 321 321 319 319 318 318 319 320 321 321 321 322 323 323 324 323 321 320 319 318 318 318 317 316 316 317 317 318 323 329 332 332 333 331 328 327 325 323 325 328 325 327 338 338 336 349 359 358 354 354 354 343 344 357 361 361 360 357 359 357 356 358 358 359 356 354 355 355 353
311 312 312 311 312 313 312 314 318 318 316 319 320 321 320 317 318 319 320 322 320 318 318 317 317 318 318 321 321 321 322 321 322 324 323 322 321 321 321 319 317 317 316 316 316 319 323 327 331 332 332 333 331 329 328 326 321 320 326 326 326 336 340 344 355 355 347 342 349 350 335 335 349 357 361 360 359 359 357 358 358 358 358 357 357 355 355 354
311 312 312 311 312 313 313 318 320 316 318 320 321 320 318 317 318 319 322 320 315 315 316 315 315 315 316 321 322 321 321 320 321 324 323 324 323 323 322 320 318 318 318 318 317 319 324 327 329 330 331 332 331 329 328 328 321 316 322 326 326 335 339 344 352 344 332 332 348 351 336 332 340 350 359 361 360 361 358 358 358 358 358 357 357 356 355 354
312 313 312 312 312 313 316 319 317 316 319 320 319 318 317 318 318 320 322 315 310 313 314 314 314 314 315 318 320 320 320 320 322 324 323 324 324 323 323 321 319 319 320 320 317 319 326 327 327 329 330 330 329 328 328 328 322 317 323 326 324 328 334 339 342 335 329 333 345 351 342 332 330 341 357 360 360 362 360 359 358 357 358 357 356 355 354 353
313 313 312 312 312 313 315 316 317 319 319 317 317 316 317 318 318 322 320 312 311 314 314 314 314 313 314 316 317 319 320 321 322 323 324 324 324 323 323 322 320 319 322 320 315 320 327 326 326 329 329 327 328 328 328 328 325 322 325 325 324 327 333 335 332 329 330 331 329 338 343 331 325 339 357 360 359 361 361 360 358 357 359 358 355 353 353 352
314 314 314 312 312 312 312 314 317 320 317 315 315 316 319 320 320 323 318 311 313 314 314 315 314 313 315 316 316 319 320 320 322 323 324 324 323 323 322 322 321 320 322 320 319 324 327 326 325 326 327 326 327 329 328 328 328 326 325 326 326 328 331 333 330 326 329 329 322 326 335 327 325 338 351 353 355 358 361 360 357 357 359 359 356 353 352 352
317 316 314 312 314 316 314 314 316 316 315 314 315 318 320 321 321 318 313 312 314 314 315 315 315 315 315 315 317 319 319 319 321 323 323 323 323 322 322 322 321 322 322 321 321 325 326 325 325 325 326 326 326 327 326 327 328 326 327 327 326 328 331 332 330 326 327 327 322 322 329 326 325 336 346 350 353 355 358 358 356 356 357 358 358 355 353 352
319 318 314 312 315 316 317 318 317 314 314 313 316 321 321 322 320 313 311 314 314 315 316 315 315 315 315 315 317 319 318 318 320 322 323 323 323 323 322 322 321 321 321 320 320 325 325 324 325 325 326 325 325 325 324 326 326 326 328 326 323 325 327 325 325 328 328 325 322 323 329 326 323 332 347 354 355 354 354 356 356 355 355 357 357 355 354 351
320 318 315 312 313 313 315 319 316 313 313 315 319 323 321 319 315 311 313 315 313 314 316 315 315 315 315 316 316 318 318 317 319 321 322 322 323 323 322 322 322 318 315 315 317 322 324 324 325 324 324 325 324 322 322 323 324 326 326 322 319 319 321 321 323 327 325 322 325 327 328 326 324 334 350 357 356 354 353 355 354 353 354 355 354 354 354 352
319 317 314 313 312 312 313 315 314 313 315 318 321 323 319 314 311 312 314 313 313 315 316 315 316 315 315 315 316 317 317 316 318 319 321 322 322 323 321 322 323 319 316 314 314 315 318 322 325 324 323 324 324 321 317 318 321 323 321 319 318 319 321 323 323 324 322 320 325 331 331 325 325 337 353 355 355 354 353 354 354 352 353 355 355 354 353 353
319 316 314 312 312 313 313 315 315 315 316 320 322 320 316 312 312 314 314 314 315 316 316 316 316 315 316 315 316 316 316 317 319 319 320 322 322 321 320 321 321 322 321 317 314 313 312 315 321 323 322 322 324 323 320 320 321 321 323 323 319 318 320 320 319 320 321 319 322 330 330 322 323 340 354 352 353 353 351 353 353 354 354 355 355 353 353 354
318 315 313 313 315 315 316 316 316 316 318 323 322 317 314 311 312 314 314 316 317 317 317 316 316 316 315 316 317 317 317 317 319 321 320 322 321 320 320 320 320 321 321 316 316 315 311 313 320 323 322 322 322 323 324 322 319 321 323 322 318 319 320 318 317 318 318 320 323 326 326 326 336 351 355 352 353 353 351 352 353 354 355 355 355 354 353 354
319 316 316 319 320 319 317 316 317 318 320 323 319 314 313 314 315 314 316 317 317 317 317 315 315 314 312 315 317 317 319 319 320 320 320 321 320 318 318 319 319 320 319 317 317 316 311 313 320 322 320 323 322 321 324 321 317 320 317 315 320 326 324 317 316 319 318 319 322 322 321 328 339 346 351 355 356 357 355 352 352 355 355 356 357 355 353 354
321 321 322 323 322 320 318 317 318 320 322 322 317 314 316 317 316 316 317 317 316 317 317 313 314 314 311 312 315 318 319 319 319 319 318 320 320 318 318 318 317 318 319 318 318 319 315 313 319 322 320 321 322 321 322 322 320 319 314 316 321 325 325 320 317 319 319 317 319 320 319 321 324 333 351 360 357 358 357 351 352 356 356 356 355 356 355 355
322 324 325 323 320 319 318 318 320 323 322 320 318 317 318 317 317 316 316 316 316 318 317 313 313 315 313 311 313 318 318 316 317 318 317 318 319 317 318 318 317 318 319 319 318 321 319 313 317 323 320 320 322 321 319 320 322 320 319 321 320 316 317 319 317 318 318 317 317 319 321 318 317 328 346 355 355 358 357 353 353 355 357 356 353 354 356 356
322 324 323 322 320 319 319 320 322 323 319 318 318 317 317 317 317 316 316 316 317 318 317 316 315 316 315 313 313 317 317 314 316 316 315 315 316 316 318 318 318 318 319 320 321 321 321 315 314 320 323 321 321 320 315 316 321 322 322 322 320 316 315 317 318 317 316 316 316 318 319 317 323 338 351 355 359 359 357 356 355 355 356 355 352 352 354 354
324 321 321 321 320 319 319 321 323 320 318 318 317 316 317 317 316 316 316 317 317 318 317 318 317 316 316 317 316 316 317 317 316 315 315 316 316 316 318 319 319 320 319 320 322 322 323 319 314 319 322 319 318 319 317 317 318 318 317 317 317 317 316 317 317 314 314 315 316 318 316 318 335 358 361 358 358 358 358 358 357 356 355 354 353 352 353 353
323 320 321 321 320 320 320 321 320 318 318 317 316 316 317 317 317 316 316 317 317 317 317 318 318 317 317 318 317 317 318 317 317 316 316 316 316 316 318 318 319 320 319 320 322 321 321 320 315 316 316 314 317 321 322 323 322 319 317 316 316 316 315 315 314 314 315 314 316 317 316 324 345 358 354 354 355 356 358 357 356 356 354 355 354 353 354 355
322 320 321 320 319 321 322 320 318 318 317 316 316 315 317 318 316 317 317 317 317 317 318 318 319 318 319 318 318 318 318 317 317 317 316 316 317 317 317 318 319 321 320 321 321 322 324 323 318 315 316 317 321 324 323 323 324 323 320 320 321 318 314 312 311 314 315 314 317 318 317 331 349 351 350 354 353 355 358 356 357 357 355 355 355 353 354 354
322 321 322 320 319 321 322 319 317 318 317 315 315 315 316 317 316 316 317 317 317 318 318 318 318 319 320 319 319 318 318 317 317 317 317 318 318 317 317 318 319 322 322 320 321 323 326 325 319 316 318 320 322 322 322 323 323 322 321 322 324 319 317 316 315 317 315 313 317 317 317 333 349 349 351 353 352 355 356 356 356 355 356 357 356 355 355 353
321 322 322 320 318 320 321 319 317 318 316 315 316 315 315 316 316 316 317 317 318 318 318 318 319 320 320 320 319 319 318 317 317 318 319 319 318 317 317 317 319 322 323 323 324 323 322 323 322 317 316 317 318 319 321 322 322 321 322 326 328 324 324 322 319 322 317 313 316 315 315 332 349 350 350 352 352 353 352 353 352 351 352 353 352 353 353 353
321 322 321 319 319 319 318 317 317 317 316 316 315 315 315 315 316 316 317 317 318 318 318 318 319 319 320 319 320 319 319 318 318 319 319 318 318 317 316 317 319 321 324 327 329 326 321 324 324 319 315 316 317 317 318 320 322 324 326 330 330 326 324 321 318 317 315 317 319 314 317 337 351 351 350 352 352 351 350 350 349 349 348 348 348 348 349 350
321 321 319 318 318 317 317 317 316 316 316 316 316 315 315 316 315 317 317 318 318 318 318 319 318 319 319 319 320 319 319 319 318 320 320 319 318 317 316 317 317 320 327 328 327 325 325 326 325 322 319 319 320 320 323 325 324 324 326 330 330 327 328 325 316 313 315 319 320 317 325 341 349 351 351 351 352 351 350 349 348 348 347 346 347 347 347 348
321 321 320 320 318 317 318 317 316 317 316 316 317 316 315 316 316 316 317 317 318 318 318 318 318 319 319 320 320 319 319 319 319 320 320 319 319 317 317 317 315 321 330 328 322 325 326 322 323 325 322 322 324 323 324 327 328 327 329 331 331 330 331 325 317 318 322 317 317 326 334 337 342 352 352 350 352 352 351 350 348 348 347 346 347 347 347 347
322 323 323 324 322 317 318 320 318 317 315 316 316 316 316 316 316 316 316 317 317 317 317 318 318 318 319 320 320 319 320 320 319 321 320 319 320 318 317 318 316 319 325 322 320 326 325 320 322 324 322 323 325 324 324 328 331 333 333 332 333 333 331 327 323 331 335 323 320 335 341 336 343 352 349 348 351 350 350 349 347 346 346 346 347 348 348 348
324 324 323 324 324 322 322 322 320 316 316 318 318 317 316 316 315 316 316 317 317 316 317 319 318 317 318 320 321 321 321 320 319 321 322 320 320 319 319 319 317 318 319 319 322 325 323 323 326 324 321 323 325 324 325 326 328 331 334 335 335 336 335 335 335 340 343 337 335 343 347 345 348 350 346 347 348 347 348 348 346 347 347 347 348 348 347 346
325 326 326 325 324 324 322 320 318 316 317 319 319 317 316 316 316 316 316 317 318 317 317 318 317 317 317 319 320 320 320 320 320 320 321 320 320 320 320 318 318 318 318 319 323 323 322 325 329 325 319 320 323 324 324 324 324 325 330 335 336 336 337 338 339 341 342 344 346 348 348 348 348 346 345 346 345 346 347 347 347 347 346 346 347 346 346 345
327 326 327 329 326 324 323 318 317 318 316 317 318 316 316 317 316 317 317 318 319 318 317 317 317 317 317 318 319 318 317 319 319 318 318 319 318 318 319 318 318 319 318 319 322 323 322 323 326 324 318 318 323 324 322 324 323 320 325 331 334 335 336 338 340 342 343 345 347 344 341 344 347 345 345 344 344 346 346 346 347 346 345 345 345 345 345 344
328 327 328 331 327 323 322 318 316 317 317 317 319 318 317 317 316 317 318 318 318 317 317 316 317 317 317 318 318 317 316 316 316 315 315 317 317 317 318 317 317 318 318 319 321 323 325 324 322 321 318 318 322 324 322 321 319 319 323 329 331 333 336 339 341 343 344 346 344 339 339 346 347 344 345 345 344 345 346 345 345 345 345 343 343 343 343 343
Wind_Speed
10 11 11 11 11 11 11 11 11 11 11 10 10 10 9 9 9 9 10 10 10 11 11 11 11 12 12 11 12 11 9 9 8 7 12 12 7 8 8 8 15 20 21 18 17 15 14 13 12 12 9 7 5 4 5 4 4 3 3 3 1 1 2 3 4 7 7 8 11 11 10 11 11 9 8 8 9 10 10 8 9 9 10 15 21 25 24 22
11 11 11 11 11 11 11 11 11 11 11 11 10 10 10 9 9 9 9 9 10 10 10 11 11 12 11 11 12 10 9 9 11 12 14 13 11 10 7 11 18 21 22 19 20 18 14 13 13 13 8 5 5 4 5 4 4 4 3 2 2 4 5 5 4 9 9 10 12 10 9 10 11 11 9 9 10 11 11 10 12 14 15 19 23 24 23 21
11 11 11 11 11 11 11 11 11 11 11 11 10 10 10 9 9 9 9 9 9 9 10 10 11 11 11 11 10 9 9 11 10 7 4 5 9 12 11 14 19 22 22 19 19 17 13 12 15 13 8 5 5 5 5 4 3 3 3 2 4 6 6 4 4 9 10 13 13 10 9 9 11 10 8 10 12 12 11 11 13 16 18 19 20 22 22 21
11 12 12 12 12 12 12 11 11 11 11 11 11 10 10 9 9 9 8 8 8 9 9 10 11 11 11 10 8 8 8 10 3 3 3 6 7 9 17 16 20 22 19 16 16 14 11 12 14 11 8 6 5 5 5 4 2 1 1 3 6 6 4 3 6 10 13 14 12 11 10 10 10 8 8 11 11 9 9 10 14 18 20 21 20 20 21 20
12 12 12 13 13 12 12 12 11 11 11 11 11 10 9 9 9 8 8 8 8 9 9 10 10 10 10 7 7 6 6 5 3 6 4 9 11 8 20 18 21 21 16 15 15 12 11 12 12 10 8 5 6 6 6 5 3 3 1 3 6 5 4 6 8 11 13 13 11 11 10 10 10 8 9 10 7 6 8 9 14 19 20 21 21 21 19 19
12 13 13 13 13 12 12 12 11 11 11 10 10 10 9 9 8 8 8 8 8 8 9 9 9 9 8 6 5 4 6 2 4 6 8 10 10 10 22 20 22 19 16 17 16 13 11 12 11 9 7 5 7 6 3 5 5 3 1 3 5 4 4 7 9 11 12 11 11 9 9 10 9 9 9 6 5 7 8 9 14 18 20 21 22 21 18 17
12 13 13 13 12 12 12 12 11 11 11 10 10 9 8 7 7 7 7 8 8 8 9 8 8 7 5 5 3 4 8 3 5 9 10 8 2 15 22 21 22 18 17 19 17 14 11 12 11 8 8 6 7 6 2 4 6 4 2 5 6 4 5 7 10 11 11 11 10 7 8 10 9 9 8 5 7 8 10 11 15 19 21 21 19 19 18 17
13 13 13 13 12 12 12 12 12 11 11 11 10 9 7 6 6 7 7 8 8 8 8 7 6 4 4 3 4 5 6 2 9 11 9 3 8 19 20 20 22 18 19 21 19 16 12 13 12 8 8 5 5 7 3 4 6 5 3 5 5 4 8 8 10 12 11 9 8 8 8 7 7 8 7 6 8 10 12 13 15 18 19 19 17 18 17 16
13 13 13 13 13 13 13 12 12 12 11 11 9 8 7 6 6 6 7 7 7 8 7 5 4 3 4 3 7 6 1 6 11 9 3 5 15 21 19 19 20 18 18 19 18 17 12 11 13 8 5 4 4 6 5 5 4 1 4 4 3 6 9 9 11 13 10 6 7 10 8 7 7 7 6 7 9 11 13 14 16 17 17 17 16 16 16 15
14 13 13 13 13 13 13 13 12 11 11 10 8 7 6 5 6 7 7 7 6 6 5 3 2 3 2 4 7 4 5 7 10 7 4 10 16 19 16 16 19 18 17 17 18 17 12 10 12 6 5 4 4 4 6 4 1 3 2 3 5 7 9 8 10 13 10 6 4 7 7 8 6 3 4 7 9 12 13 14 16 16 16 16 15 15 15 15
14 14 13 13 13 14 13 13 12 12 11 9 8 6 5 5 5 6 7 7 6 5 4 3 1 2 3 6 7 2 6 5 9 6 6 12 16 16 13 14 17 16 14 15 16 15 12 8 8 5 3 2 4 5 5 2 2 0 2 7 8 7 9 8 8 12 10 3 2 7 7 6 3 2 5 10 11 12 14 15 16 16 15 15 15 14 13 13
15 14 14 14 14 14 13 13 13 12 10 9 7 6 4 4 4 5 5 6 5 3 2 2 3 2 4 7 6 3 5 5 7 4 8 11 12 11 10 13 13 12 12 12 12 11 9 8 8 8 1 0 5 5 3 2 1 4 5 7 8 8 8 7 7 9 9 4 3 7 7 3 3 2 8 11 11 13 14 14 15 15 14 14 14 12 11 13
16 15 14 14 14 14 14 13 12 11 10 8 7 5 4 3 3 4 4 4 4 2 1 3 4 0 6 5 1 3 4 4 3 5 10 10 9 9 10 11 8 6 8 10 11 9 6 7 10 9 3 4 4 2 1 4 4 6 7 6 7 7 5 5 7 8 8 6 4 4 3 4 4 3 8 11 12 13 13 13 14 13 13 13 13 11 11 13
16 16 15 15 14 14 14 13 13 11 9 8 7 5 4 3 2 3 2 2 3 2 3 5 3 2 6 2 2 3 4 1 2 7 10 10 11 10 9 9 7 5 4 5 8 8 5 6 8 8 5 6 2 2 4 6 5 6 8 6 6 5 5 6 7 9 8 6 5 4 2 4 7 6 8 11 12 13 13 13 14 13 13 12 12 11 11 12
16 16 16 15 14 13 13 13 12 10 9 8 6 4 3 2 2 2 1 2 1 3 5 4 1 4 6 2 2 1 1 2 5 8 10 11 11 10 10 10 8 6 5 4 6 7 6 6 7 7 6 4 5 6 6 6 6 6 6 6 7 4 6 6 6 9 8 7 8 6 3 4 8 9 10 10 12 13 12 14 14 13 14 13 12 11 11 12
17 16 16 15 14 13 13 12 10 9 9 8 5 3 1 1 0 1 2 2 1 4 4 1 3 5 5 1 4 2 1 3 4 8 10 10 8 9 11 10 9 8 6 4 5 7 8 7 6 5 5 5 6 7 6 6 6 7 6 6 7 5 6 4 6 9 8 9 10 9 4 4 7 10 11 11 12 13 11 13 14 14 14 13 11 11 10 11
17 16 16 15 13 12 12 11 8 7 9 7 4 1 0 0 1 1 3 3 2 3 2 4 3 5 3 2 4 3 3 4 4 8 11 7 5 10 12 9 9 9 7 5 6 8 9 7 5 3 5 6 5 6 6 8 7 7 6 5 6 7 8 7 6 8 8 9 10 10 6 4 8 10 11 12 11 11 12 12 14 13 13 12 11 11 11 11
17 16 15 14 13 12 12 11 7 5 7 5 2 2 1 0 2 1 3 4 3 4 5 4 3 4 2 3 2 3 4 4 5 8 10 8 7 10 10 8 9 10 8 7 7 9 8 6 6 6 7 6 5 7 7 7 8 8 7 5 6 7 8 8 6 8 11 10 10 11 6 3 10 11 11 12 11 10 11 11 12 13 13 13 11 11 11 11
18 17 15 14 13 12 12 11 5 3 5 3 2 1 1 2 3 3 4 5 4 2 1 2 3 3 2 3 1 3 3 4 6 8 11 11 10 9 7 8 10 10 9 7 8 10 8 6 7 8 9 8 8 10 5 1 3 8 9 6 7 7 4 5 5 8 12 9 7 8 7 4 9 11 10 12 12 10 9 8 10 12 12 12 11 11 12 11
18 17 15 14 13 12 12 10 3 2 4 2 1 2 2 1 0 2 4 6 5 4 4 3 3 4 1 1 2 1 3 6 6 8 12 12 12 10 8 10 10 9 8 7 9 9 8 8 8 9 10 11 12 10 3 4 4 6 7 6 7 7 5 3 5 8 10 8 7 8 7 6 7 11 12 12 12 11 10 10 11 12 12 12 12 12 12 12
18 17 16 14 13 12 12 10 2 1 3 2 3 5 3 6 6 5 4 3 3 3 6 5 4 6 5 4 3 2 3 7 6 9 13 13 13 10 8 9 9 7 8 8 8 8 9 9 10 12 11 10 9 6 3 2 2 5 6 7 7 5 6 5 6 7 7 5 5 8 7 8 8 11 13 13 12 13 13 12 12 14 13 11 11 12 12 11
19 17 16 13 13 12 12 10 2 2 2 1 4 5 4 6 5 5 6 4 1 2 5 4 4 6 5 5 3 3 4 6 9 10 12 13 12 7 6 9 9 7 8 8 7 7 9 8 11 13 9 6 5 5 5 4 4 6 6 7 5 5 6 7 5 6 6 3 3 8 7 7 9 10 12 15 14 13 13 12 11 12 13 12 11 11 12 11
19 18 16 13 12 12 12 10 2 2 2 2 6 5 3 4 4 4 6 6 0 3 2 2 3 3 2 2 3 6 7 7 10 10 12 13 8 5 7 9 8 7 9 10 8 8 8 9 12 11 7 8 7 6 7 5 5 5 5 8 6 6 6 6 6 8 7 4 3 5 7 5 7 9 10 13 13 11 12 12 10 8 9 12 13 11 11 13
19 18 15 13 12 11 12 10 2 3 4 6 8 4 1 3 5 4 5 5 1 3 1 1 2 2 2 3 5 9 7 5 6 10 13 12 6 5 7 7 7 7 9 12 11 9 7 5 8 10 9 10 8 8 9 7 6 4 4 5 5 10 8 2 7 8 6 6 4 4 6 4 7 9 9 10 10 10 11 13 13 9 7 8 12 11 11 12
19 18 15 13 10 9 11 8 2 3 6 6 5 3 3 5 5 4 6 4 2 3 2 2 1 1 3 2 4 6 4 4 4 9 14 11 6 5 4 4 6 7 10 13 12 10 6 3 5 10 11 11 9 9 10 9 7 6 5 3 2 9 7 4 11 9 5 7 7 7 6 3 7 10 9 10 10 11 11 13 14 12 7 7 10 12 11 12
20 18 15 12 9 8 8 3 2 4 7 3 1 2 4 7 6 4 5 4 4 3 0 2 1 2 2 2 4 4 6 6 3 7 12 9 5 3 3 5 5 5 9 11 8 7 5 6 8 11 11 11 10 9 10 9 7 6 7 4 2 5 7 9 12 8 4 3 6 10 6 1 4 8 11 12 12 13 12 13 14 12 9 8 9 10 11 12
20 18 15 12 9 6 5 3 4 8 5 1 1 3 5 9 6 4 5 3 5 3 3 1 1 2 2 1 3 4 3 8 6 7 9 8 5 4 4 5 4 4 7 7 7 5 6 8 10 11 12 11 10 8 9 10 8 4 8 6 5 6 7 9 9 7 4 2 5 9 7 4 3 6 11 14 13 14 14 14 15 13 11 11 11 11 11 12
20 18 15 12 9 7 6 6 7 6 3 2 4 6 8 8 4 5 5 2 5 3 2 3 2 0 0 2 4 3 4 8 6 8 8 7 7 5 5 5 5 7 9 8 6 6 8 9 9 12 12 9 10 8 8 11 8 4 8 4 5 5 6 7 7 6 3 2 5 8 7 6 3 5 9 13 13 13 15 16 16 16 13 12 14 13 12 12
19 18 15 12 10 9 7 7 7 4 3 5 7 8 7 4 5 5 4 3 3 1 1 2 0 2 2 4 4 2 3 4 2 6 8 7 7 6 3 2 4 8 11 11 6 6 8 8 7 10 10 8 11 9 8 12 8 5 5 4 4 4 5 6 6 4 3 5 7 8 9 7 3 5 7 10 12 12 13 14 15 17 15 12 13 15 14 12
18 17 15 11 8 6 6 7 7 5 5 7 7 6 4 5 4 5 1 4 3 2 1 2 1 0 3 4 5 4 3 3 3 7 8 6 7 6 1 1 3 6 9 11 9 4 7 4 3 7 7 4 8 7 7 11 7 3 5 7 6 5 3 3 4 3 3 7 7 8 10 8 4 4 6 8 9 11 12 12 14 17 17 16 13 12 13 12
17 16 14 11 7 4 5 4 2 4 7 7 5 4 6 4 4 3 5 3 2 3 2 1 2 0 3 3 3 5 4 3 4 7 7 5 7 7 4 4 4 5 6 8 8 5 8 7 5 7 6 3 4 6 7 9 7 5 7 7 6 5 2 3 4 3 6 7 5 5 8 9 6 3 5 7 6 10 12 12 15 18 19 18 14 11 12 12
16 14 13 12 9 8 8 4 4 8 9 6 4 5 5 3 1 4 5 1 2 5 4 2 3 2 2 1 2 4 3 3 4 5 5 5 6 4 4 3 4 6 6 7 8 8 8 8 7 8 8 8 7 7 7 7 7 8 9 8 7 6 5 6 7 6 7 6 3 4 7 8 6 2 5 8 6 7 9 9 13 17 18 19 17 14 12 11
14 12 11 11 10 9 9 8 10 11 8 5 5 6 5 2 4 4 4 2 3 5 3 2 4 2 3 3 4 3 2 1 2 4 4 5 5 4 1 1 3 6 4 5 8 7 7 9 11 10 8 10 11 8 7 7 8 10 10 9 9 7 7 8 7 7 8 6 3 4 5 6 5 3 5 7 6 6 6 7 10 14 17 17 17 15 13 12
12 10 9 8 8 7 7 8 10 10 6 5 6 6 4 2 4 1 3 5 5 4 2 3 3 2 2 1 4 1 2 2 1 5 5 5 5 4 4 3 2 6 3 4 6 6 7 8 12 13 9 11 14 11 7 7 8 10 10 9 10 8 8 8 8 8 8 7 6 5 5 5 4 4 4 4 5 5 6 6 7 10 14 15 15 16 15 13
9 5 4 3 3 4 5 6 8 8 6 6 5 3 1 3 3 1 4 5 5 5 2 1 5 4 4 4 3 1 3 2 1 2 3 5 4 2 2 2 1 4 4 4 4 4 7 3 8 13 11 12 15 13 10 8 8 9 9 9 10 9 8 6 5 6 7 5 6 7 5 2 2 5 5 4 4 5 6 7 7 9 13 14 14 16 15 13
5 1 1 1 1 4 5 5 5 5 5 6 4 1 3 3 4 4 4 5 6 7 5 3 4 3 3 4 4 3 2 1 3 3 2 3 2 1 1 2 2 3 4 4 3 3 6 3 8 10 11 13 15 14 13 10 6 7 9 10 9 8 9 8 5 5 6 6 6 7 7 4 4 5 5 5 5 5 6 9 9 9 13 14 13 14 14 13
1 2 2 2 2 4 5 4 4 5 6 5 1 3 2 3 4 4 4 6 5 5 7 2 1 3 1 2 3 4 3 2 4 3 2 3 1 3 4 2 3 4 5 4 4 1 4 4 9 10 12 12 10 12 16 15 9 5 8 10 8 6 7 8 6 6 7 8 6 7 9 8 6 4 4 6 7 6 6 10 11 10 12 13 12 13 14 14
2 4 2 4 5 4 4 3 4 6 6 2 4 4 1 2 4 4 5 5 5 4 4 2 2 2 1 1 2 4 4 3 3 4 3 4 3 2 5 2 3 3 5 4 4 1 4 5 7 9 12 12 8 9 13 14 13 8 5 8 9 7 7 7 6 7 8 8 7 8 9 8 6 4 5 7 7 6 6 9 12 12 11 11 12 13 14 15
3 5 3 5 7 2 2 4 5 7 4 0 3 4 1 3 4 4 4 4 5 4 3 2 1 1 0 1 1 2 3 2 3 3 2 2 2 1 4 2 2 2 3 4 3 0 3 5 4 6 9 10 9 9 9 11 12 9 7 8 9 7 8 8 7 7 7 8 8 7 8 7 4 2 6 7 6 6 6 8 10 11 11 11 11 13 14 14
4 4 3 5 6 2 3 6 6 4 1 2 2 3 2 2 3 5 4 3 4 4 3 3 2 1 1 0 1 1 2 1 2 2 1 1 2 4 4 5 3 2 2 4 2 2 2 4 2 5 8 8 9 10 9 8 12 10 7 8 9 7 8 8 8 8 7 7 7 7 8 5 2 4 6 8 6 5 6 8 8 9 9 10 10 11 13 14
5 3 4 3 4 1 4 6 3 0 1 2 3 3 2 3 3 4 4 2 3 3 4 4 3 2 1 0 1 1 0 1 1 1 2 1 1 3 5 6 6 5 4 5 2 3 2 3 4 4 7 8 8 7 5 4 8 12 10 9 10 9 8 8 9 9 8 7 5 7 7 3 4 3 4 7 5 5 7 8 8 8 9 8 8 10 12 13
5 2 4 3 4 2 6 3 2 0 0 3 3 3 2 2 2 3 3 2 2 2 2 3 4 3 3 2 2 1 0 0 1 1 2 3 4 4 5 6 6 6 5 4 1 4 3 3 4 5 5 3 4 4 1 4 4 10 10 9 10 11 10 8 8 8 8 8 5 5 6 2 4 2 4 6 6 6 7 8 7 6 7 6 6 8 10 12
3 1 4 3 3 3 6 2 3 2 2 4 2 2 2 2 2 3 3 3 3 3 2 3 3 3 3 3 2 1 1 2 2 2 3 4 5 6 6 7 5 5 5 3 0 2 2 3 3 5 4 3 5 4 4 3 6 9 9 7 7 9 10 9 8 7 8 9 7 6 6 3 5 3 4 6 7 7 7 8 8 6 5 6 5 6 7 9
1 1 2 2 1 4 6 2 3 2 4 4 4 4 3 3 5 4 4 6 5 4 3 3 3 3 4 3 2 1 1 1 1 2 2 2 4 5 6 8 7 4 2 2 2 1 1 2 2 4 6 6 6 7 7 7 7 7 6 4 5 7 7 7 6 4 6 10 11 9 6 4 5 4 5 6 7 8 7 7 8 7 7 7 7 7 6 5
1 2 2 2 1 3 3 2 1 1 5 5 4 3 3 3 4 4 4 6 5 4 3 2 2 3 2 1 0 2 1 2 1 1 1 3 4 4 6 7 7 5 4 5 6 5 1 2 3 4 5 6 5 5 4 4 4 3 2 2 5 7 8 7 6 6 6 8 10 10 5 5 8 7 7 6 7 8 7 7 7 7 7 7 7 7 6 6
2 3 3 3 3 1 0 1 3 2 3 4 4 2 2 2 4 1 2 3 4 4 3 2 1 2 1 0 1 3 2 1 1 2 2 2 3 4 5 6 6 6 5 5 7 5 2 1 2 3 3 3 4 5 3 2 1 2 1 2 4 6 7 8 8 8 8 6 7 10 5 6 10 11 9 8 8 7 8 7 7 7 7 8 7 7 7 6
3 2 1 2 3 2 3 3 2 1 2 2 2 2 2 2 3 2 1 2 3 3 2 2 1 2 0 1 1 2 2 1 2 3 1 1 1 2 2 4 6 7 4 3 3 4 3 3 4 6 7 7 6 5 4 3 4 3 2 1 2 4 7 10 10 6 6 8 7 7 7 7 10 12 11 9 9 7 7 8 7 7 7 7 7 7 8 8
1 1 1 2 1 2 2 1 0 2 3 2 1 1 3 2 1 1 2 2 1 2 3 1 2 2 2 2 2 1 1 2 3 3 1 1 0 2 2 1 5 6 4 2 1 3 4 4 4 4 4 5 4 3 3 4 6 6 5 5 3 2 4 7 6 2 2 6 5 5 7 6 7 12 11 9 10 8 8 8 8 8 7 7 8 8 8 9
1 0 2 1 2 1 2 1 1 3 4 2 2 2 3 2 2 3 2 0 1 2 3 0 4 3 3 2 3 1 1 1 2 3 1 1 1 2 0 1 3 5 4 1 1 2 3 1 2 3 5 4 2 1 2 3 6 9 9 8 5 4 3 1 1 4 3 1 2 3 6 5 7 11 11 9 9 8 8 8 8 9 9 8 9 9 9 9
2 2 1 2 2 1 2 2 3 4 4 2 2 3 2 1 2 4 2 2 1 3 0 1 5 4 4 4 1 1 3 4 2 3 1 1 0 2 2 2 3 5 4 3 1 0 2 1 1 3 6 6 2 1 3 4 2 7 11 10 7 6 4 5 5 4 3 2 3 7 9 9 8 9 10 9 8 9 9 9 9 9 9 9 9 9 9 9
3 2 3 3 2 2 2 3 3 4 4 3 2 4 3 2 3 4 4 4 3 2 2 2 3 2 2 3 3 5 5 4 3 3 2 2 3 3 3 4 5 5 4 4 2 1 3 2 2 4 7 6 2 2 4 6 5 2 11 13 10 8 6 6 7 5 5 3 4 7 7 7 7 10 10 10 9 10 11 10 8 7 8 8 8 8 9 9
4 1 2 4 2 2 2 4 4 4 2 2 2 3 3 4 5 4 3 3 2 2 3 2 1 1 1 3 5 6 5 3 3 3 2 2 4 4 3 4 6 6 5 4 2 1 3 4 3 4 7 5 3 2 6 8 7 3 7 10 10 10 8 6 6 6 6 5 1 2 3 6 10 11 11 11 10 10 9 8 7 6 6 7 7 8 9 9
Wind_Direction
345 343 342 340 339 338 337 336 335 334 333 332 332 329 328 327 325 324 322 321 320 319 321 324 325 327 327 328 325 323 341 331 293 254 241 253 255 239 245 211 186 172 163 163 164 161 164 175 172 173 178 178 202 189 179 225 248 252 269 281 355 358 330 35 142 143 125 144 151 159 162 144 140 139 132 141 142 139 137 127 115 103 107 115 123 132 137 142
344 342 340 339 337 336 335 333 333 332 331 330 328 327 327 325 325 323 320 321 318 319 321 319 324 325 325 329 324 334 345 312 273 256 254 265 268 245 216 190 185 171 163 170 174 172 172 171 170 177 186 181 180 172 176 199 223 253 286 312 11 18 5 13 123 136 135 148 150 157 158 147 144 143 149 150 140 145 143 132 125 116 114 118 127 135 139 144
342 339 338 337 334 333 331 332 332 329 328 326 326 325 325 323 323 321 320 320 316 319 319 318 323 322 324 327 329 347 339 297 266 253 271 308 271 232 193 183 183 172 169 177 180 180 182 172 171 182 194 194 185 179 188 187 198 247 278 322 32 39 15 7 132 134 133 142 148 152 152 149 144 147 163 153 144 154 150 142 138 131 133 133 135 141 144 148
340 337 337 335 333 332 332 332 330 329 327 325 325 322 322 323 319 319 320 315 315 317 317 321 321 320 325 329 344 358 320 278 244 84 34 352 325 208 185 184 180 175 176 181 181 185 188 175 177 192 205 199 183 197 208 189 197 268 278 336 14 39 38 81 119 122 130 141 148 148 148 150 146 152 165 153 149 158 155 152 146 141 143 141 141 147 149 151
340 338 336 334 334 333 333 333 331 331 328 325 323 321 320 318 317 318 316 314 316 315 316 321 320 321 327 339 5 354 299 263 114 54 344 327 332 192 179 185 179 173 177 179 176 181 184 180 185 199 214 202 177 201 216 198 231 278 268 345 359 21 63 105 114 121 132 141 146 148 148 145 147 152 161 160 147 142 148 151 146 144 146 145 145 149 152 152
341 341 339 337 335 333 334 333 332 331 328 326 322 319 318 317 320 316 313 316 314 316 318 320 320 320 332 359 10 316 275 278 68 356 323 327 326 179 173 183 177 171 177 176 173 179 182 186 192 198 211 208 190 200 197 189 221 267 276 8 1 17 74 113 122 125 130 140 147 144 136 140 147 145 155 152 88 110 133 138 142 142 146 147 146 148 153 156
343 344 342 342 342 339 336 332 332 331 328 326 321 319 319 319 319 310 309 309 310 319 317 320 325 325 353 5 329 259 254 288 25 338 322 330 311 164 169 178 174 173 180 179 178 182 182 188 198 201 206 205 199 199 157 181 212 255 301 14 3 30 95 121 127 132 135 139 138 130 136 147 147 139 146 120 94 119 126 129 138 141 145 147 149 150 153 157
344 344 344 346 348 346 338 335 335 333 329 327 324 323 318 311 304 298 298 300 309 316 314 326 330 339 23 353 285 251 238 342 10 339 328 349 154 158 163 170 173 177 183 185 182 182 183 192 200 202 207 203 191 193 177 195 203 240 305 16 9 66 107 123 131 138 140 137 132 133 140 137 133 133 127 112 117 127 126 131 138 142 146 149 153 151 151 158
346 347 347 348 350 348 342 339 337 335 333 328 327 324 315 305 301 300 300 304 311 312 319 331 324 7 38 318 280 264 189 37 9 351 2 127 151 156 158 167 177 181 184 186 184 185 185 194 200 207 233 210 179 192 197 223 189 156 325 1 38 93 113 131 139 137 128 122 129 130 124 114 128 133 112 112 129 132 133 138 142 146 150 152 154 152 153 160
350 350 351 352 352 350 347 343 340 339 334 330 330 329 327 322 317 318 315 317 317 311 326 333 342 39 4 283 266 257 81 40 6 14 120 145 150 157 164 173 178 183 186 184 186 189 189 201 201 212 281 225 187 195 196 234 52 56 341 54 83 103 116 131 135 123 98 67 99 122 121 125 150 175 128 130 141 142 141 142 146 151 153 153 154 153 157 161
352 353 353 354 354 353 351 347 345 342 339 337 336 337 338 331 326 323 319 322 320 318 342 348 52 61 298 276 261 283 65 28 1 29 139 149 154 162 171 174 177 188 187 181 188 191 197 206 198 209 264 192 184 198 193 209 32 61 134 100 100 107 110 113 115 113 108 70 70 113 107 117 165 247 130 138 150 150 145 146 152 154 153 154 153 153 159 162
355 356 355 355 356 355 353 349 345 342 339 336 334 338 332 325 324 318 319 320 316 323 2 27 94 77 284 262 254 323 23 348 353 61 139 143 156 164 164 168 177 195 191 186 185 184 200 200 203 218 232 94 197 190 171 167 257 226 175 120 114 115 111 114 117 125 137 146 127 117 101 112 190 155 128 143 153 151 149 151 156 156 153 155 154 154 161 164
357 357 358 358 359 357 355 350 346 341 337 335 334 333 319 319 316 311 313 310 322 345 25 84 99 77 276 262 211 330 326 325 9 123 145 143 148 152 158 166 171 193 196 194 179 170 192 192 209 226 243 263 213 133 136 192 233 213 176 143 128 131 131 131 137 144 140 130 154 161 126 150 173 153 149 153 153 154 155 156 159 159 157 157 158 158 163 165
358 357 358 359 0 359 356 350 347 342 338 336 333 332 321 315 298 286 297 324 349 41 78 92 108 248 269 286 75 314 311 1 133 145 153 147 135 139 155 167 170 178 192 195 177 174 182 187 216 227 233 263 285 319 234 200 211 188 164 161 163 162 156 154 161 162 147 132 175 206 142 157 163 165 172 162 157 163 160 158 163 163 162 161 160 163 164 167
359 357 357 358 360 358 355 350 346 342 343 344 338 339 322 302 298 249 183 24 18 89 83 88 190 260 263 256 105 317 338 156 174 159 159 154 140 139 152 159 160 162 173 187 182 184 188 192 216 219 205 232 266 254 213 185 190 182 177 183 184 172 141 153 180 181 168 153 186 203 137 154 168 165 177 172 164 171 166 159 166 167 167 165 162 167 166 167
360 356 354 355 356 355 354 350 345 345 352 357 347 344 322 304 19 193 132 95 101 104 102 201 231 263 282 61 118 176 177 145 155 158 164 165 149 139 148 152 149 148 150 167 185 186 194 203 211 228 214 204 226 229 194 181 185 190 215 201 176 160 134 145 187 192 177 153 183 210 177 151 168 163 171 177 172 176 173 163 169 170 168 168 166 169 169 167
360 357 353 350 351 352 352 348 344 351 359 6 10 67 120 266 163 128 103 111 120 125 206 263 273 265 276 112 152 160 117 98 114 156 165 168 151 140 146 151 155 155 143 144 171 181 191 204 194 208 228 217 214 219 203 193 184 188 218 210 172 166 157 153 172 186 177 165 184 207 204 136 146 161 168 177 178 181 179 170 173 174 169 171 171 170 170 171
359 357 352 346 347 347 350 350 346 2 6 15 66 117 125 49 109 99 103 125 162 191 222 252 258 251 176 149 180 88 96 105 114 152 161 157 148 145 151 153 155 158 156 152 164 180 186 196 195 192 205 210 207 214 208 197 195 188 197 203 174 176 171 149 152 173 177 191 193 189 204 138 136 156 170 177 181 188 187 177 176 177 173 173 175 173 170 174
357 355 351 344 343 342 349 352 348 17 12 31 93 123 179 140 137 184 190 177 207 247 260 200 240 293 71 111 64 63 100 128 133 151 157 158 153 151 155 154 158 165 171 167 169 184 188 187 200 202 199 195 199 211 215 351 245 203 191 205 187 173 148 112 127 162 175 197 195 180 199 180 143 150 168 180 182 194 197 182 178 180 178 176 179 176 171 177
355 355 350 343 339 338 348 353 351 45 19 62 148 247 234 306 137 181 203 211 241 303 317 289 283 292 295 78 24 52 144 165 173 154 154 162 155 149 151 154 165 179 186 177 165 178 194 196 196 201 198 189 195 214 253 1 309 230 193 201 204 168 118 122 146 156 183 203 183 178 194 184 155 153 167 178 180 193 196 183 184 184 181 180 181 177 173 179
354 353 349 344 337 334 349 355 347 116 25 75 225 263 338 1 353 356 332 252 213 266 282 288 292 280 287 315 316 297 186 172 160 145 156 168 166 157 153 164 175 184 194 179 150 162 199 210 199 200 197 181 186 206 234 249 241 233 207 200 208 155 132 179 172 156 194 229 176 176 195 189 175 158 161 170 177 193 194 184 187 185 181 182 183 179 174 177
351 351 348 344 333 331 347 352 345 172 15 80 235 277 4 13 345 323 305 294 155 201 263 262 266 273 274 277 265 258 241 165 141 145 160 178 193 189 163 182 193 178 179 177 157 168 199 219 202 194 185 158 167 183 203 226 213 215 213 207 196 122 145 178 170 166 184 239 184 178 207 197 172 158 163 174 182 193 193 187 194 191 182 179 183 181 175 175
348 347 346 342 332 330 340 348 344 213 309 253 256 295 10 11 331 268 257 284 265 158 229 250 268 269 219 199 164 200 215 162 144 150 168 189 202 193 174 189 200 174 171 185 190 184 193 216 199 179 166 169 173 177 193 209 209 210 211 213 183 148 192 189 165 181 187 231 262 195 214 197 162 164 171 182 186 187 186 186 196 211 200 183 181 183 178 176
346 342 342 340 331 328 336 342 310 238 297 272 265 281 314 341 327 265 253 282 279 131 144 344 309 320 45 69 155 201 209 159 156 151 171 195 173 160 186 185 190 181 181 195 202 199 197 206 180 164 174 191 184 178 196 205 195 199 222 232 170 167 210 211 147 167 183 221 255 211 215 200 179 185 175 177 186 182 182 186 188 203 225 197 183 185 184 183
343 339 336 335 330 327 332 332 218 240 298 273 251 221 235 322 321 262 264 269 145 125 149 152 235 33 59 96 170 212 207 165 170 149 170 199 175 162 178 167 201 196 182 191 204 210 194 139 158 173 185 198 196 187 199 213 198 180 206 255 111 160 182 136 143 158 184 207 205 205 224 200 182 195 183 172 182 184 183 190 189 187 205 205 189 188 188 188
340 335 331 329 328 325 327 332 168 289 288 245 130 198 247 311 306 250 263 253 120 79 30 153 187 70 78 158 163 215 201 163 121 139 170 198 197 203 180 166 219 209 175 183 207 221 167 146 186 191 187 194 206 201 193 213 223 178 170 172 126 158 160 145 153 171 208 189 176 203 231 243 183 199 190 176 181 187 186 193 192 182 188 200 197 193 190 190
336 332 326 320 319 315 316 329 321 303 287 116 47 271 287 303 283 215 248 247 89 28 325 56 56 34 42 123 175 236 176 132 134 155 179 199 195 230 219 177 201 184 171 185 205 203 147 152 184 191 193 196 206 203 180 208 239 149 130 159 189 188 168 163 172 192 215 119 158 200 223 251 232 195 182 176 182 189 190 195 192 183 184 195 200 196 193 193
333 327 319 314 310 299 290 296 302 301 321 344 295 295 305 290 226 206 256 12 60 340 308 52 38 297 246 189 218 264 98 126 164 163 175 203 201 236 228 188 198 172 173 202 188 152 162 173 173 184 197 200 209 205 172 204 235 106 110 159 195 198 187 189 206 210 202 209 204 196 208 237 220 150 164 174 185 195 195 196 192 187 185 189 200 199 196 197
331 322 313 308 304 298 287 275 276 285 292 287 294 309 300 237 186 227 264 52 48 306 51 54 214 191 216 202 203 228 136 156 195 147 162 194 209 248 267 187 204 165 172 217 217 138 171 191 172 184 199 199 209 206 173 204 226 95 126 176 159 191 206 210 232 230 190 239 240 196 195 233 205 141 165 178 192 202 199 196 192 190 189 188 196 199 199 198
329 317 307 301 301 306 295 268 253 255 268 287 310 307 240 192 212 258 353 48 8 7 48 302 303 175 247 215 178 172 164 128 105 148 169 184 193 218 293 69 216 177 172 218 234 141 136 169 184 199 213 206 199 195 183 212 223 131 175 193 171 185 205 221 245 253 219 236 241 196 193 232 233 166 180 186 199 202 194 194 190 188 193 192 191 195 199 201
326 312 299 291 287 279 275 261 219 258 287 309 313 254 213 211 256 316 42 50 316 0 8 329 25 337 247 248 162 158 165 129 135 169 177 185 190 189 175 167 199 194 174 203 221 169 150 173 185 198 224 233 190 186 189 213 216 197 208 204 188 188 195 223 220 228 239 232 222 192 198 227 240 203 168 161 186 200 194 191 186 185 191 192 191 188 193 205
322 305 292 283 273 259 258 278 304 292 299 311 283 233 231 243 309 24 36 195 256 3 14 26 16 358 213 210 127 153 180 148 160 186 183 195 198 185 195 198 197 200 192 192 196 186 188 196 181 179 200 213 212 191 176 197 205 209 217 206 199 199 195 213 208 210 232 225 199 200 207 225 239 203 143 144 159 190 193 193 186 185 186 187 189 186 186 202
319 301 286 275 270 264 267 279 285 287 297 293 256 238 252 301 43 29 2 8 20 14 1 333 344 333 226 188 134 155 221 121 168 200 184 197 194 173 202 309 250 241 223 188 190 185 194 202 195 189 185 199 218 211 175 183 198 206 212 204 204 204 198 210 209 213 226 215 200 200 205 227 226 163 136 151 154 159 178 193 186 183 182 181 183 183 181 194
319 299 280 273 271 270 276 278 276 279 283 266 248 244 261 9 56 356 343 29 26 359 344 333 318 240 203 116 106 172 235 94 170 210 179 188 199 186 175 131 228 261 252 194 203 202 205 200 192 197 189 183 205 224 210 187 192 206 214 211 215 215 213 217 210 210 224 215 197 187 201 234 217 146 119 142 158 162 181 187 179 180 178 173 176 178 178 185
326 307 282 282 284 274 271 273 274 270 263 256 254 265 325 45 54 358 7 17 359 343 352 304 275 224 132 94 89 51 332 28 138 200 160 170 188 202 207 121 139 262 257 219 202 206 231 223 164 189 198 181 194 218 227 210 194 200 212 217 219 218 218 233 238 230 237 229 197 195 219 246 134 143 141 140 164 181 187 183 178 180 175 167 171 178 179 181
345 23 111 82 335 296 265 262 276 260 252 262 261 37 51 46 20 7 6 348 338 337 314 236 249 260 115 109 109 99 342 335 132 139 113 147 145 55 345 35 40 289 277 252 214 192 231 200 138 177 202 192 197 205 208 221 213 183 203 216 218 226 228 232 241 245 255 250 207 204 228 212 156 170 162 156 171 171 183 189 180 177 175 169 172 179 179 177
343 178 122 93 341 302 260 256 274 249 250 272 327 61 50 56 25 1 353 336 324 316 299 253 185 333 48 115 108 116 157 160 153 175 152 152 125 9 336 22 35 319 315 289 253 202 252 207 145 172 199 193 204 206 200 216 229 192 199 207 204 234 251 239 230 217 227 241 212 198 223 219 197 190 164 177 186 165 174 187 176 173 175 171 177 182 177 175
262 218 132 52 359 305 250 265 281 258 254 265 101 91 24 59 43 2 354 336 306 295 309 341 37 339 318 173 105 127 176 179 174 185 151 157 164 330 310 358 62 345 333 297 257 159 280 243 154 172 195 179 185 210 199 204 221 236 241 208 196 211 220 215 228 219 213 232 219 194 214 229 221 189 163 180 177 147 152 173 172 172 171 170 179 183 178 179
233 220 143 33 352 308 262 286 273 258 252 164 112 111 36 45 58 19 359 333 313 317 338 12 14 309 308 295 103 141 219 216 173 182 164 170 147 71 322 336 54 9 352 310 293 22 274 258 165 166 178 165 172 204 200 190 203 238 265 214 198 218 217 204 221 228 223 234 227 206 208 219 224 141 139 152 144 134 149 163 169 171 169 171 176 179 180 182
228 226 118 27 340 328 303 280 258 252 195 69 55 89 60 30 62 44 14 336 336 350 358 9 347 333 74 236 167 136 275 241 161 188 148 116 118 96 37 355 333 328 314 285 314 14 271 256 202 156 155 171 186 196 206 194 188 203 226 208 198 215 222 211 216 223 233 239 229 229 222 190 86 60 116 128 125 137 151 155 161 163 164 168 172 175 177 176
242 236 111 30 333 311 279 265 231 342 116 110 75 89 68 356 17 50 46 347 352 18 3 5 14 17 31 235 110 78 274 179 147 142 101 73 17 78 48 1 317 303 291 266 307 16 325 265 247 189 176 194 188 180 225 253 202 196 205 209 203 204 210 211 210 209 228 242 231 239 236 151 73 44 113 125 137 146 146 149 153 157 158 160 167 171 169 170
243 213 98 23 336 269 265 254 127 282 173 101 76 71 41 337 343 27 39 356 353 38 11 12 22 16 25 30 33 56 104 44 68 73 89 70 41 37 26 357 311 289 287 261 333 20 337 275 258 232 209 181 118 121 254 302 242 210 213 219 207 202 207 213 210 198 211 231 232 247 246 132 86 70 99 117 133 128 131 135 132 140 151 153 162 168 167 171
240 116 90 17 345 253 259 221 151 208 85 95 105 83 43 346 15 24 19 11 8 11 18 35 22 14 38 31 2 62 44 19 53 71 91 95 61 29 2 352 323 277 275 264 253 37 302 271 257 235 218 111 98 134 171 199 225 219 219 230 228 217 212 219 229 212 204 214 212 226 232 157 109 118 117 119 121 112 116 125 116 105 106 110 123 142 156 167
333 56 104 35 13 242 260 246 170 167 110 134 155 119 100 45 32 18 22 32 21 352 356 41 33 21 36 12 337 59 1 320 94 81 75 99 62 24 358 355 345 320 331 347 338 346 305 315 291 231 206 170 162 171 167 176 207 219 212 230 274 269 241 231 238 226 217 214 208 222 230 142 120 147 148 142 136 123 117 123 121 112 98 89 88 92 100 122
289 203 145 93 136 232 280 348 314 166 130 157 159 128 149 114 57 9 15 39 30 359 351 37 26 0 22 8 128 101 338 305 97 125 125 111 94 48 13 6 359 355 27 6 316 293 286 322 307 252 219 194 177 167 160 177 209 226 232 243 261 258 244 232 220 216 222 207 204 229 238 123 138 158 151 156 152 131 121 119 114 108 103 97 91 91 94 101
259 207 178 155 164 205 61 35 297 241 156 175 163 142 217 143 101 58 354 28 39 16 0 30 345 289 284 246 171 115 96 7 85 156 158 117 109 70 14 4 19 18 14 343 308 288 224 169 27 41 71 102 98 85 62 334 269 207 231 255 229 223 231 233 226 224 223 204 208 229 220 149 159 167 162 166 162 146 140 132 117 111 108 107 106 106 108 110
276 233 199 167 175 187 170 167 240 213 164 202 174 145 223 194 134 131 44 23 30 5 343 37 340 280 293 318 239 105 84 84 116 134 122 43 91 104 8 359 36 25 328 284 307 301 236 179 118 86 83 88 82 67 54 35 35 40 26 1 193 196 215 224 229 243 237 227 224 208 195 190 174 163 166 170 160 151 149 138 124 119 112 113 119 120 121 123
299 263 30 345 250 197 175 151 170 167 151 161 179 172 202 202 155 99 75 73 49 326 293 133 66 2 29 349 287 141 129 177 135 120 94 54 333 214 206 44 40 21 313 255 19 323 264 197 159 154 126 104 83 32 23 55 58 48 37 38 63 147 197 218 229 327 305 238 238 192 190 205 166 149 156 165 156 146 141 135 127 125 122 126 135 138 136 132
328 145 96 308 284 23 63 70 174 175 151 143 164 176 198 184 105 77 38 342 112 26 317 96 79 46 46 16 303 235 132 258 121 103 56 40 346 313 265 148 39 19 348 300 42 341 291 220 150 207 201 165 132 29 356 25 59 58 46 36 46 81 83 89 65 29 17 282 257 169 150 125 120 137 147 154 149 137 133 134 134 135 136 137 141 140 133 125
350 10 44 239 222 92 91 150 192 183 157 176 180 147 182 226 105 106 54 329 76 99 350 94 80 52 45 49 355 77 59 6 30 83 348 297 297 349 15 27 359 2 1 345 9 337 280 246 113 240 218 183 165 282 332 334 4 61 51 38 38 54 56 45 38 14 359 50 116 136 125 106 107 129 136 138 139 136 138 138 137 137 139 142 144 137 128 122
344 356 328 273 200 139 175 171 197 203 177 190 184 150 168 158 105 114 92 27 17 73 72 62 80 53 39 68 60 60 58 15 14 55 7 357 49 37 29 24 351 338 1 4 339 263 264 234 156 235 219 170 127 291 327 328 280 100 53 36 30 36 42 45 37 19 8 40 136 150 135 127 132 134 134 139 148 150 146 138 134 138 147 151 144 131 124 119
338 245 279 279 220 167 204 177 190 217 183 118 122 149 163 137 129 146 127 89 63 50 29 356 332 286 210 104 61 33 22 2 23 66 77 72 78 72 57 45 23 7 5 351 320 287 278 252 191 219 222 169 93 338 329 319 266 184 55 25 19 26 36 54 57 44 21 0 265 167 105 127 144 146 143 146 153 153 143 136 140 147 153 150 138 130 126 116